owner,sensor,date,latitude,longitude,sea_surface_height_above_sea_level,qcFlag 
WAVCIS,ioos:station:WAVCIS:CSI16:1,2009-10-01T00:00:00Z,29.4012,-89.0355,9.5,11111222 
WAVCIS,ioos:station:WAVCIS:CSI16:1,2009-10-01T01:00:00Z,29.4012,-89.0355,9.523,11111222 
WAVCIS,ioos:station:WAVCIS:CSI16:1,2009-10-01T02:00:00Z,29.4012,-89.0355,9.54,11111222 
WAVCIS,ioos:station:WAVCIS:CSI16:1,2009-10-01T03:00:00Z,29.4012,-89.0355,9.552,11111222 
WAVCIS,ioos:station:WAVCIS:CSI16:1,2009-10-01T04:00:00Z,29.4012,-89.0355,9.558,11111222 
WAVCIS,ioos:station:WAVCIS:CSI16:1,2009-10-01T05:00:00Z,29.4012,-89.0355,9.559,11111222 
WAVCIS,ioos:station:WAVCIS:CSI16:1,2009-10-01T06:00:00Z,29.4012,-89.0355,9.556,11111222 
WAVCIS,ioos:station:WAVCIS:CSI16:1,2009-10-01T07:00:00Z,29.4012,-89.0355,9.561,11111222 
WAVCIS,ioos:station:WAVCIS:CSI16:1,2009-10-01T08:00:00Z,29.4012,-89.0355,9.565,11111222 
WAVCIS,ioos:station:WAVCIS:CSI16:1,2009-10-01T09:00:00Z,29.4012,-89.0355,9.576,11111222 
WAVCIS,ioos:station:WAVCIS:CSI16:1,2009-10-01T10:00:00Z,29.4012,-89.0355,9.599,11111222 
WAVCIS,ioos:station:WAVCIS:CSI16:1,2009-10-01T11:00:00Z,29.4012,-89.0355,9.619,11111222 
WAVCIS,ioos:station:WAVCIS:CSI16:1,2009-10-01T12:00:00Z,29.4012,-89.0355,9.628,11111222 
WAVCIS,ioos:station:WAVCIS:CSI16:1,2009-10-01T13:00:00Z,29.4012,-89.0355,9.648,11111222 
WAVCIS,ioos:station:WAVCIS:CSI16:1,2009-10-01T14:00:00Z,29.4012,-89.0355,9.657,11111222 
WAVCIS,ioos:station:WAVCIS:CSI16:1,2009-10-01T15:00:00Z,29.4012,-89.0355,9.639,11111222 
WAVCIS,ioos:station:WAVCIS:CSI16:1,2009-10-01T16:00:00Z,29.4012,-89.0355,9.625,11111222 
WAVCIS,ioos:station:WAVCIS:CSI16:1,2009-10-01T17:00:00Z,29.4012,-89.0355,9.609,11111222 
WAVCIS,ioos:station:WAVCIS:CSI16:1,2009-10-01T18:00:00Z,29.4012,-89.0355,9.568,11111222 
WAVCIS,ioos:station:WAVCIS:CSI16:1,2009-10-01T19:00:00Z,29.4012,-89.0355,9.542,11111222 
WAVCIS,ioos:station:WAVCIS:CSI16:1,2009-10-01T20:00:00Z,29.4012,-89.0355,9.529,11111222 
WAVCIS,ioos:station:WAVCIS:CSI16:1,2009-10-01T21:00:00Z,29.4012,-89.0355,9.515,11111222 
WAVCIS,ioos:station:WAVCIS:CSI16:1,2009-10-01T22:00:00Z,29.4012,-89.0355,9.513,11111222 
WAVCIS,ioos:station:WAVCIS:CSI16:1,2009-10-01T23:00:00Z,29.4012,-89.0355,9.522,11111222 
WAVCIS,ioos:station:WAVCIS:CSI16:1,2009-10-02T00:00:00Z,29.4012,-89.0355,9.544,11111222 
WAVCIS,ioos:station:WAVCIS:CSI16:1,2009-10-02T01:00:00Z,29.4012,-89.0355,9.561,11111222 
WAVCIS,ioos:station:WAVCIS:CSI16:1,2009-10-02T02:00:00Z,29.4012,-89.0355,9.584,11111222 
WAVCIS,ioos:station:WAVCIS:CSI16:1,2009-10-02T03:00:00Z,29.4012,-89.0355,9.585,11111222 
WAVCIS,ioos:station:WAVCIS:CSI16:1,2009-10-02T04:00:00Z,29.4012,-89.0355,9.584,11111222 
WAVCIS,ioos:station:WAVCIS:CSI16:1,2009-10-02T05:00:00Z,29.4012,-89.0355,9.601,11111222 
WAVCIS,ioos:station:WAVCIS:CSI16:1,2009-10-02T06:00:00Z,29.4012,-89.0355,9.6,11111222 
WAVCIS,ioos:station:WAVCIS:CSI16:1,2009-10-02T07:00:00Z,29.4012,-89.0355,9.579,11111222 
WAVCIS,ioos:station:WAVCIS:CSI16:1,2009-10-02T08:00:00Z,29.4012,-89.0355,9.567,11111222 
WAVCIS,ioos:station:WAVCIS:CSI16:1,2009-10-02T09:00:00Z,29.4012,-89.0355,9.561,11111222 
WAVCIS,ioos:station:WAVCIS:CSI16:1,2009-10-02T10:00:00Z,29.4012,-89.0355,9.56,11111222 
WAVCIS,ioos:station:WAVCIS:CSI16:1,2009-10-02T11:00:00Z,29.4012,-89.0355,9.583,11111222 
WAVCIS,ioos:station:WAVCIS:CSI16:1,2009-10-02T12:00:00Z,29.4012,-89.0355,9.605,11111222 
WAVCIS,ioos:station:WAVCIS:CSI16:1,2009-10-02T13:00:00Z,29.4012,-89.0355,9.639,11111222 
WAVCIS,ioos:station:WAVCIS:CSI16:1,2009-10-02T14:00:00Z,29.4012,-89.0355,9.597,11111222 
WAVCIS,ioos:station:WAVCIS:CSI16:1,2009-10-02T15:00:00Z,29.4012,-89.0355,9.6,11111222 
WAVCIS,ioos:station:WAVCIS:CSI16:1,2009-10-02T16:00:00Z,29.4012,-89.0355,9.594,11111222 
WAVCIS,ioos:station:WAVCIS:CSI16:1,2009-10-02T17:00:00Z,29.4012,-89.0355,9.588,11111222 
WAVCIS,ioos:station:WAVCIS:CSI16:1,2009-10-02T18:00:00Z,29.4012,-89.0355,9.591,11111222 
WAVCIS,ioos:station:WAVCIS:CSI16:1,2009-10-02T19:00:00Z,29.4012,-89.0355,9.557,11111222 
WAVCIS,ioos:station:WAVCIS:CSI16:1,2009-10-02T20:00:00Z,29.4012,-89.0355,9.551,11111222 
WAVCIS,ioos:station:WAVCIS:CSI16:1,2009-10-02T21:00:00Z,29.4012,-89.0355,9.539,11111222 
WAVCIS,ioos:station:WAVCIS:CSI16:1,2009-10-02T22:00:00Z,29.4012,-89.0355,9.54,11111222 
WAVCIS,ioos:station:WAVCIS:CSI16:1,2009-10-02T23:00:00Z,29.4012,-89.0355,9.55,11111222 
WAVCIS,ioos:station:WAVCIS:CSI16:1,2009-10-03T00:00:00Z,29.4012,-89.0355,9.561,11111222 
WAVCIS,ioos:station:WAVCIS:CSI16:1,2009-10-03T01:00:00Z,29.4012,-89.0355,9.585,11111222 
WAVCIS,ioos:station:WAVCIS:CSI16:1,2009-10-03T02:00:00Z,29.4012,-89.0355,9.591,11111222 
WAVCIS,ioos:station:WAVCIS:CSI16:1,2009-10-03T03:00:00Z,29.4012,-89.0355,9.601,11111222 
WAVCIS,ioos:station:WAVCIS:CSI16:1,2009-10-03T04:00:00Z,29.4012,-89.0355,9.583,11111222 
WAVCIS,ioos:station:WAVCIS:CSI16:1,2009-10-03T05:00:00Z,29.4012,-89.0355,9.574,11111222 
WAVCIS,ioos:station:WAVCIS:CSI16:1,2009-10-03T06:00:00Z,29.4012,-89.0355,9.548,11111222 
WAVCIS,ioos:station:WAVCIS:CSI16:1,2009-10-03T07:00:00Z,29.4012,-89.0355,9.519,11111222 
WAVCIS,ioos:station:WAVCIS:CSI16:1,2009-10-03T08:00:00Z,29.4012,-89.0355,9.486,11111222 
WAVCIS,ioos:station:WAVCIS:CSI16:1,2009-10-03T09:00:00Z,29.4012,-89.0355,9.47,11111222 
WAVCIS,ioos:station:WAVCIS:CSI16:1,2009-10-03T10:00:00Z,29.4012,-89.0355,9.485,11111222 
WAVCIS,ioos:station:WAVCIS:CSI16:1,2009-10-03T11:00:00Z,29.4012,-89.0355,9.509,11111222 
WAVCIS,ioos:station:WAVCIS:CSI16:1,2009-10-03T12:00:00Z,29.4012,-89.0355,9.529,11111222 
WAVCIS,ioos:station:WAVCIS:CSI16:1,2009-10-03T13:00:00Z,29.4012,-89.0355,9.546,11111222 
WAVCIS,ioos:station:WAVCIS:CSI16:1,2009-10-03T14:00:00Z,29.4012,-89.0355,9.562,11111222 
WAVCIS,ioos:station:WAVCIS:CSI16:1,2009-10-03T15:00:00Z,29.4012,-89.0355,9.601,11111222 
WAVCIS,ioos:station:WAVCIS:CSI16:1,2009-10-03T16:00:00Z,29.4012,-89.0355,9.624,11111222 
WAVCIS,ioos:station:WAVCIS:CSI16:1,2009-10-03T17:00:00Z,29.4012,-89.0355,9.625,11111222 
WAVCIS,ioos:station:WAVCIS:CSI16:1,2009-10-03T18:00:00Z,29.4012,-89.0355,9.625,11111222 
WAVCIS,ioos:station:WAVCIS:CSI16:1,2009-10-03T19:00:00Z,29.4012,-89.0355,9.623,11111222 
WAVCIS,ioos:station:WAVCIS:CSI16:1,2009-10-03T20:00:00Z,29.4012,-89.0355,9.61,11111222 
WAVCIS,ioos:station:WAVCIS:CSI16:1,2009-10-03T21:00:00Z,29.4012,-89.0355,9.612,11111222 
WAVCIS,ioos:station:WAVCIS:CSI16:1,2009-10-03T22:00:00Z,29.4012,-89.0355,9.629,11111222 
WAVCIS,ioos:station:WAVCIS:CSI16:1,2009-10-03T23:00:00Z,29.4012,-89.0355,9.646,11111222 
WAVCIS,ioos:station:WAVCIS:CSI16:1,2009-10-04T00:00:00Z,29.4012,-89.0355,9.657,11111222 
WAVCIS,ioos:station:WAVCIS:CSI16:1,2009-10-04T01:00:00Z,29.4012,-89.0355,9.682,11111222 
WAVCIS,ioos:station:WAVCIS:CSI16:1,2009-10-04T02:00:00Z,29.4012,-89.0355,9.683,11111222 
WAVCIS,ioos:station:WAVCIS:CSI16:1,2009-10-04T03:00:00Z,29.4012,-89.0355,9.686,11111222 
WAVCIS,ioos:station:WAVCIS:CSI16:1,2009-10-04T04:00:00Z,29.4012,-89.0355,9.684,11111222 
WAVCIS,ioos:station:WAVCIS:CSI16:1,2009-10-04T05:00:00Z,29.4012,-89.0355,9.659,11111222 
WAVCIS,ioos:station:WAVCIS:CSI16:1,2009-10-04T06:00:00Z,29.4012,-89.0355,9.621,11111222 
WAVCIS,ioos:station:WAVCIS:CSI16:1,2009-10-04T07:00:00Z,29.4012,-89.0355,9.584,11111222 
WAVCIS,ioos:station:WAVCIS:CSI16:1,2009-10-04T08:00:00Z,29.4012,-89.0355,9.53,11111222 
WAVCIS,ioos:station:WAVCIS:CSI16:1,2009-10-04T09:00:00Z,29.4012,-89.0355,9.496,11111222 
WAVCIS,ioos:station:WAVCIS:CSI16:1,2009-10-04T10:00:00Z,29.4012,-89.0355,9.484,11111222 
WAVCIS,ioos:station:WAVCIS:CSI16:1,2009-10-04T11:00:00Z,29.4012,-89.0355,9.466,11111222 
WAVCIS,ioos:station:WAVCIS:CSI16:1,2009-10-04T12:00:00Z,29.4012,-89.0355,9.473,11111222 
WAVCIS,ioos:station:WAVCIS:CSI16:1,2009-10-04T13:00:00Z,29.4012,-89.0355,9.471,11111222 
WAVCIS,ioos:station:WAVCIS:CSI16:1,2009-10-04T14:00:00Z,29.4012,-89.0355,9.537,11111222 
WAVCIS,ioos:station:WAVCIS:CSI16:1,2009-10-04T15:00:00Z,29.4012,-89.0355,9.565,11111222 
WAVCIS,ioos:station:WAVCIS:CSI16:1,2009-10-04T16:00:00Z,29.4012,-89.0355,9.583,11111222 
WAVCIS,ioos:station:WAVCIS:CSI16:1,2009-10-04T17:00:00Z,29.4012,-89.0355,9.61,11111222 
WAVCIS,ioos:station:WAVCIS:CSI16:1,2009-10-04T18:00:00Z,29.4012,-89.0355,9.629,11111222 
WAVCIS,ioos:station:WAVCIS:CSI16:1,2009-10-04T19:00:00Z,29.4012,-89.0355,9.618,11111222 
WAVCIS,ioos:station:WAVCIS:CSI16:1,2009-10-04T20:00:00Z,29.4012,-89.0355,9.626,11111222 
WAVCIS,ioos:station:WAVCIS:CSI16:1,2009-10-04T21:00:00Z,29.4012,-89.0355,9.64,11111222 
WAVCIS,ioos:station:WAVCIS:CSI16:1,2009-10-04T22:00:00Z,29.4012,-89.0355,9.665,11111222 
WAVCIS,ioos:station:WAVCIS:CSI16:1,2009-10-04T23:00:00Z,29.4012,-89.0355,9.684,11111222 
WAVCIS,ioos:station:WAVCIS:CSI16:1,2009-10-05T00:00:00Z,29.4012,-89.0355,9.704,11111222 
WAVCIS,ioos:station:WAVCIS:CSI16:1,2009-10-05T01:00:00Z,29.4012,-89.0355,9.715,11111222 
WAVCIS,ioos:station:WAVCIS:CSI16:1,2009-10-05T02:00:00Z,29.4012,-89.0355,9.727,11111222 
WAVCIS,ioos:station:WAVCIS:CSI16:1,2009-10-05T03:00:00Z,29.4012,-89.0355,9.725,11111222 
WAVCIS,ioos:station:WAVCIS:CSI16:1,2009-10-05T04:00:00Z,29.4012,-89.0355,9.714,11111222 
WAVCIS,ioos:station:WAVCIS:CSI16:1,2009-10-05T05:00:00Z,29.4012,-89.0355,9.663,11111222 
WAVCIS,ioos:station:WAVCIS:CSI16:1,2009-10-05T06:00:00Z,29.4012,-89.0355,9.641,11111222 
WAVCIS,ioos:station:WAVCIS:CSI16:1,2009-10-05T07:00:00Z,29.4012,-89.0355,9.564,11111222 
WAVCIS,ioos:station:WAVCIS:CSI16:1,2009-10-05T08:00:00Z,29.4012,-89.0355,9.502,11111222 
WAVCIS,ioos:station:WAVCIS:CSI16:1,2009-10-05T09:00:00Z,29.4012,-89.0355,9.411,11111222 
WAVCIS,ioos:station:WAVCIS:CSI16:1,2009-10-05T10:00:00Z,29.4012,-89.0355,9.32,11111222 
WAVCIS,ioos:station:WAVCIS:CSI16:1,2009-10-05T11:00:00Z,29.4012,-89.0355,9.332,11111222 
WAVCIS,ioos:station:WAVCIS:CSI16:1,2009-10-05T12:00:00Z,29.4012,-89.0355,9.34,11111222 
WAVCIS,ioos:station:WAVCIS:CSI16:1,2009-10-05T13:00:00Z,29.4012,-89.0355,9.356,11111222 
WAVCIS,ioos:station:WAVCIS:CSI16:1,2009-10-05T14:00:00Z,29.4012,-89.0355,9.347,11111222 
WAVCIS,ioos:station:WAVCIS:CSI16:1,2009-10-05T15:00:00Z,29.4012,-89.0355,9.378,11111222 
WAVCIS,ioos:station:WAVCIS:CSI16:1,2009-10-05T16:00:00Z,29.4012,-89.0355,9.42,11111222 
WAVCIS,ioos:station:WAVCIS:CSI16:1,2009-10-05T17:00:00Z,29.4012,-89.0355,9.447,11111222 
WAVCIS,ioos:station:WAVCIS:CSI16:1,2009-10-05T18:00:00Z,29.4012,-89.0355,9.486,11111222 
WAVCIS,ioos:station:WAVCIS:CSI16:1,2009-10-05T19:00:00Z,29.4012,-89.0355,9.543,11111222 
WAVCIS,ioos:station:WAVCIS:CSI16:1,2009-10-05T20:00:00Z,29.4012,-89.0355,9.549,11111222 
WAVCIS,ioos:station:WAVCIS:CSI16:1,2009-10-05T21:00:00Z,29.4012,-89.0355,9.557,11111222 
WAVCIS,ioos:station:WAVCIS:CSI16:1,2009-10-05T22:00:00Z,29.4012,-89.0355,9.593,11111222 
WAVCIS,ioos:station:WAVCIS:CSI16:1,2009-10-05T23:00:00Z,29.4012,-89.0355,9.624,11111222 
WAVCIS,ioos:station:WAVCIS:CSI16:1,2009-10-06T00:00:00Z,29.4012,-89.0355,9.663,11111222 
WAVCIS,ioos:station:WAVCIS:CSI16:1,2009-10-06T01:00:00Z,29.4012,-89.0355,9.713,11111222 
WAVCIS,ioos:station:WAVCIS:CSI16:1,2009-10-06T02:00:00Z,29.4012,-89.0355,9.732,11111222 
WAVCIS,ioos:station:WAVCIS:CSI16:1,2009-10-06T03:00:00Z,29.4012,-89.0355,9.738,11111222 
WAVCIS,ioos:station:WAVCIS:CSI16:1,2009-10-06T04:00:00Z,29.4012,-89.0355,9.726,11111222 
WAVCIS,ioos:station:WAVCIS:CSI16:1,2009-10-06T05:00:00Z,29.4012,-89.0355,9.703,11111222 
WAVCIS,ioos:station:WAVCIS:CSI16:1,2009-10-06T06:00:00Z,29.4012,-89.0355,9.675,11111222 
WAVCIS,ioos:station:WAVCIS:CSI16:1,2009-10-06T07:00:00Z,29.4012,-89.0355,9.612,11111222 
WAVCIS,ioos:station:WAVCIS:CSI16:1,2009-10-06T08:00:00Z,29.4012,-89.0355,9.554,11111222 
WAVCIS,ioos:station:WAVCIS:CSI16:1,2009-10-06T09:00:00Z,29.4012,-89.0355,9.469,11111222 
WAVCIS,ioos:station:WAVCIS:CSI16:1,2009-10-06T10:00:00Z,29.4012,-89.0355,9.363,11111222 
WAVCIS,ioos:station:WAVCIS:CSI16:1,2009-10-06T11:00:00Z,29.4012,-89.0355,9.317,11111222 
WAVCIS,ioos:station:WAVCIS:CSI16:1,2009-10-06T12:00:00Z,29.4012,-89.0355,9.301,11111222 
WAVCIS,ioos:station:WAVCIS:CSI16:1,2009-10-06T13:00:00Z,29.4012,-89.0355,9.29,11111222 
WAVCIS,ioos:station:WAVCIS:CSI16:1,2009-10-08T16:00:00Z,29.4012,-89.0355,9.173,11111222 
WAVCIS,ioos:station:WAVCIS:CSI16:1,2009-10-08T17:00:00Z,29.4012,-89.0355,9.196,11111222 
WAVCIS,ioos:station:WAVCIS:CSI16:1,2009-10-08T18:00:00Z,29.4012,-89.0355,9.223,11111222 
WAVCIS,ioos:station:WAVCIS:CSI16:1,2009-10-08T19:00:00Z,29.4012,-89.0355,9.252,11111222 
WAVCIS,ioos:station:WAVCIS:CSI16:1,2009-10-08T20:00:00Z,29.4012,-89.0355,9.298,11111222 
WAVCIS,ioos:station:WAVCIS:CSI16:1,2009-10-08T21:00:00Z,29.4012,-89.0355,9.355,11111222 
WAVCIS,ioos:station:WAVCIS:CSI16:1,2009-10-08T22:00:00Z,29.4012,-89.0355,9.437,11111222 
WAVCIS,ioos:station:WAVCIS:CSI16:1,2009-10-08T23:00:00Z,29.4012,-89.0355,9.528,11111222 
WAVCIS,ioos:station:WAVCIS:CSI16:1,2009-10-09T00:00:00Z,29.4012,-89.0355,9.605,11111222 
WAVCIS,ioos:station:WAVCIS:CSI16:1,2009-10-09T01:00:00Z,29.4012,-89.0355,9.668,11111222 
WAVCIS,ioos:station:WAVCIS:CSI16:1,2009-10-09T02:00:00Z,29.4012,-89.0355,9.722,11111222 
WAVCIS,ioos:station:WAVCIS:CSI16:1,2009-10-09T03:00:00Z,29.4012,-89.0355,9.769,11111222 
WAVCIS,ioos:station:WAVCIS:CSI16:1,2009-10-09T04:00:00Z,29.4012,-89.0355,9.795,11111222 
WAVCIS,ioos:station:WAVCIS:CSI16:1,2009-10-09T05:00:00Z,29.4012,-89.0355,9.801,11111222 
WAVCIS,ioos:station:WAVCIS:CSI16:1,2009-10-09T06:00:00Z,29.4012,-89.0355,9.792,11111222 
WAVCIS,ioos:station:WAVCIS:CSI16:1,2009-10-09T07:00:00Z,29.4012,-89.0355,9.771,11111222 
WAVCIS,ioos:station:WAVCIS:CSI16:1,2009-10-09T08:00:00Z,29.4012,-89.0355,9.722,11111222 
WAVCIS,ioos:station:WAVCIS:CSI16:1,2009-10-09T09:00:00Z,29.4012,-89.0355,9.655,11111222 
WAVCIS,ioos:station:WAVCIS:CSI16:1,2009-10-09T10:00:00Z,29.4012,-89.0355,9.582,11111222 
WAVCIS,ioos:station:WAVCIS:CSI16:1,2009-10-09T11:00:00Z,29.4012,-89.0355,9.477,11111222 
WAVCIS,ioos:station:WAVCIS:CSI16:1,2009-10-09T12:00:00Z,29.4012,-89.0355,9.37,11111222 
WAVCIS,ioos:station:WAVCIS:CSI16:1,2009-10-09T13:00:00Z,29.4012,-89.0355,9.289,11111222 
WAVCIS,ioos:station:WAVCIS:CSI16:1,2009-10-09T14:00:00Z,29.4012,-89.0355,9.239,11111222 
WAVCIS,ioos:station:WAVCIS:CSI16:1,2009-10-09T15:00:00Z,29.4012,-89.0355,9.173,11111222 
WAVCIS,ioos:station:WAVCIS:CSI16:1,2009-10-09T16:00:00Z,29.4012,-89.0355,9.14,11111222 
WAVCIS,ioos:station:WAVCIS:CSI16:1,2009-10-09T17:00:00Z,29.4012,-89.0355,9.127,11111222 
WAVCIS,ioos:station:WAVCIS:CSI16:1,2009-10-09T18:00:00Z,29.4012,-89.0355,9.127,11111222 
WAVCIS,ioos:station:WAVCIS:CSI16:1,2009-10-09T19:00:00Z,29.4012,-89.0355,9.133,11111222 
WAVCIS,ioos:station:WAVCIS:CSI16:1,2009-10-09T20:00:00Z,29.4012,-89.0355,9.173,11111222 
WAVCIS,ioos:station:WAVCIS:CSI16:1,2009-10-09T21:00:00Z,29.4012,-89.0355,9.22,11111222 
WAVCIS,ioos:station:WAVCIS:CSI16:1,2009-10-09T22:00:00Z,29.4012,-89.0355,9.271,11111222 
WAVCIS,ioos:station:WAVCIS:CSI16:1,2009-10-09T23:00:00Z,29.4012,-89.0355,9.357,11111222 
WAVCIS,ioos:station:WAVCIS:CSI16:1,2009-10-10T00:00:00Z,29.4012,-89.0355,9.446,11111222 
WAVCIS,ioos:station:WAVCIS:CSI16:1,2009-10-10T01:00:00Z,29.4012,-89.0355,9.52,11111222 
WAVCIS,ioos:station:WAVCIS:CSI16:1,2009-10-10T02:00:00Z,29.4012,-89.0355,9.679,11111222 
WAVCIS,ioos:station:WAVCIS:CSI16:1,2009-10-10T03:00:00Z,29.4012,-89.0355,9.66,11111222 
WAVCIS,ioos:station:WAVCIS:CSI16:1,2009-10-10T04:00:00Z,29.4012,-89.0355,9.684,11111222 
WAVCIS,ioos:station:WAVCIS:CSI16:1,2009-10-10T05:00:00Z,29.4012,-89.0355,9.705,11111222 
WAVCIS,ioos:station:WAVCIS:CSI16:1,2009-10-10T06:00:00Z,29.4012,-89.0355,9.72,11111222 
WAVCIS,ioos:station:WAVCIS:CSI16:1,2009-10-10T07:00:00Z,29.4012,-89.0355,9.726,11111222 
WAVCIS,ioos:station:WAVCIS:CSI16:1,2009-10-10T08:00:00Z,29.4012,-89.0355,9.718,11111222 
WAVCIS,ioos:station:WAVCIS:CSI16:1,2009-10-10T09:00:00Z,29.4012,-89.0355,9.686,11111222 
WAVCIS,ioos:station:WAVCIS:CSI16:1,2009-10-10T10:00:00Z,29.4012,-89.0355,9.638,11111222 
WAVCIS,ioos:station:WAVCIS:CSI16:1,2009-10-10T11:00:00Z,29.4012,-89.0355,9.579,11111222 
WAVCIS,ioos:station:WAVCIS:CSI16:1,2009-10-10T12:00:00Z,29.4012,-89.0355,9.516,11111222 
WAVCIS,ioos:station:WAVCIS:CSI16:1,2009-10-10T13:00:00Z,29.4012,-89.0355,9.444,11111222 
WAVCIS,ioos:station:WAVCIS:CSI16:1,2009-10-10T14:00:00Z,29.4012,-89.0355,9.34,11111222 
WAVCIS,ioos:station:WAVCIS:CSI16:1,2009-10-10T15:00:00Z,29.4012,-89.0355,9.272,11111222 
WAVCIS,ioos:station:WAVCIS:CSI16:1,2009-10-10T16:00:00Z,29.4012,-89.0355,9.227,11111222 
WAVCIS,ioos:station:WAVCIS:CSI16:1,2009-10-10T17:00:00Z,29.4012,-89.0355,9.202,11111222 
WAVCIS,ioos:station:WAVCIS:CSI16:1,2009-10-10T18:00:00Z,29.4012,-89.0355,9.187,11111222 
WAVCIS,ioos:station:WAVCIS:CSI16:1,2009-10-10T19:00:00Z,29.4012,-89.0355,9.198,11111222 
WAVCIS,ioos:station:WAVCIS:CSI16:1,2009-10-10T20:00:00Z,29.4012,-89.0355,9.211,11111222 
WAVCIS,ioos:station:WAVCIS:CSI16:1,2009-10-10T21:00:00Z,29.4012,-89.0355,9.244,11111222 
WAVCIS,ioos:station:WAVCIS:CSI16:1,2009-10-10T22:00:00Z,29.4012,-89.0355,9.297,11111222 
WAVCIS,ioos:station:WAVCIS:CSI16:1,2009-10-10T23:00:00Z,29.4012,-89.0355,9.351,11111222 
WAVCIS,ioos:station:WAVCIS:CSI16:1,2009-10-11T00:00:00Z,29.4012,-89.0355,9.436,11111222 
WAVCIS,ioos:station:WAVCIS:CSI16:1,2009-10-11T01:00:00Z,29.4012,-89.0355,9.538,11111222 
WAVCIS,ioos:station:WAVCIS:CSI16:1,2009-10-11T02:00:00Z,29.4012,-89.0355,9.613,11111222 
WAVCIS,ioos:station:WAVCIS:CSI16:1,2009-10-11T03:00:00Z,29.4012,-89.0355,9.673,11111222 
WAVCIS,ioos:station:WAVCIS:CSI16:1,2009-10-11T04:00:00Z,29.4012,-89.0355,9.721,11111222 
WAVCIS,ioos:station:WAVCIS:CSI16:1,2009-10-11T05:00:00Z,29.4012,-89.0355,9.748,11111222 
WAVCIS,ioos:station:WAVCIS:CSI16:1,2009-10-11T06:00:00Z,29.4012,-89.0355,9.767,11111222 
WAVCIS,ioos:station:WAVCIS:CSI16:1,2009-10-11T07:00:00Z,29.4012,-89.0355,9.767,11111222 
WAVCIS,ioos:station:WAVCIS:CSI16:1,2009-10-11T08:00:00Z,29.4012,-89.0355,9.768,11111222 
WAVCIS,ioos:station:WAVCIS:CSI16:1,2009-10-11T09:00:00Z,29.4012,-89.0355,9.754,11111222 
WAVCIS,ioos:station:WAVCIS:CSI16:1,2009-10-11T10:00:00Z,29.4012,-89.0355,9.726,11111222 
WAVCIS,ioos:station:WAVCIS:CSI16:1,2009-10-11T11:00:00Z,29.4012,-89.0355,9.681,11111222 
WAVCIS,ioos:station:WAVCIS:CSI16:1,2009-10-11T12:00:00Z,29.4012,-89.0355,9.618,11111222 
WAVCIS,ioos:station:WAVCIS:CSI16:1,2009-10-11T13:00:00Z,29.4012,-89.0355,9.542,11111222 
WAVCIS,ioos:station:WAVCIS:CSI16:1,2009-10-11T14:00:00Z,29.4012,-89.0355,9.465,11111222 
WAVCIS,ioos:station:WAVCIS:CSI16:1,2009-10-11T15:00:00Z,29.4012,-89.0355,9.386,11111222 
WAVCIS,ioos:station:WAVCIS:CSI16:1,2009-10-11T16:00:00Z,29.4012,-89.0355,9.315,11111222 
WAVCIS,ioos:station:WAVCIS:CSI16:1,2009-10-11T17:00:00Z,29.4012,-89.0355,9.28,11111222 
WAVCIS,ioos:station:WAVCIS:CSI16:1,2009-10-11T18:00:00Z,29.4012,-89.0355,9.221,11111222 
WAVCIS,ioos:station:WAVCIS:CSI16:1,2009-10-11T19:00:00Z,29.4012,-89.0355,9.193,11111222 
WAVCIS,ioos:station:WAVCIS:CSI16:1,2009-10-11T20:00:00Z,29.4012,-89.0355,9.2,11111222 
WAVCIS,ioos:station:WAVCIS:CSI16:1,2009-10-11T21:00:00Z,29.4012,-89.0355,9.225,11111222 
WAVCIS,ioos:station:WAVCIS:CSI16:1,2009-10-11T22:00:00Z,29.4012,-89.0355,9.246,11111222 
WAVCIS,ioos:station:WAVCIS:CSI16:1,2009-10-11T23:00:00Z,29.4012,-89.0355,9.285,11111222 
WAVCIS,ioos:station:WAVCIS:CSI16:1,2009-10-12T00:00:00Z,29.4012,-89.0355,9.384,11111222 
WAVCIS,ioos:station:WAVCIS:CSI16:1,2009-10-12T01:00:00Z,29.4012,-89.0355,9.46,11111222 
WAVCIS,ioos:station:WAVCIS:CSI16:1,2009-10-12T02:00:00Z,29.4012,-89.0355,9.515,11111222 
WAVCIS,ioos:station:WAVCIS:CSI16:1,2009-10-12T03:00:00Z,29.4012,-89.0355,9.583,11111222 
WAVCIS,ioos:station:WAVCIS:CSI16:1,2009-10-12T04:00:00Z,29.4012,-89.0355,9.624,11111222 
WAVCIS,ioos:station:WAVCIS:CSI16:1,2009-10-12T05:00:00Z,29.4012,-89.0355,9.665,11111222 
WAVCIS,ioos:station:WAVCIS:CSI16:1,2009-10-12T06:00:00Z,29.4012,-89.0355,9.702,11111222 
WAVCIS,ioos:station:WAVCIS:CSI16:1,2009-10-12T07:00:00Z,29.4012,-89.0355,9.726,11111222 
WAVCIS,ioos:station:WAVCIS:CSI16:1,2009-10-12T08:00:00Z,29.4012,-89.0355,9.715,11111222 
WAVCIS,ioos:station:WAVCIS:CSI16:1,2009-10-12T09:00:00Z,29.4012,-89.0355,9.712,11111222 
WAVCIS,ioos:station:WAVCIS:CSI16:1,2009-10-12T10:00:00Z,29.4012,-89.0355,9.699,11111222 
WAVCIS,ioos:station:WAVCIS:CSI16:1,2009-10-12T11:00:00Z,29.4012,-89.0355,9.671,11111222 
WAVCIS,ioos:station:WAVCIS:CSI16:1,2009-10-12T12:00:00Z,29.4012,-89.0355,9.63,11111222 
WAVCIS,ioos:station:WAVCIS:CSI16:1,2009-10-12T13:00:00Z,29.4012,-89.0355,9.584,11111222 
WAVCIS,ioos:station:WAVCIS:CSI16:1,2009-10-12T14:00:00Z,29.4012,-89.0355,9.522,11111222 
WAVCIS,ioos:station:WAVCIS:CSI16:1,2009-10-12T15:00:00Z,29.4012,-89.0355,9.41,11111222 
WAVCIS,ioos:station:WAVCIS:CSI16:1,2009-10-12T16:00:00Z,29.4012,-89.0355,9.311,11111222 
WAVCIS,ioos:station:WAVCIS:CSI16:1,2009-10-12T17:00:00Z,29.4012,-89.0355,9.258,11111222 
WAVCIS,ioos:station:WAVCIS:CSI16:1,2009-10-12T18:00:00Z,29.4012,-89.0355,9.207,11111222 
WAVCIS,ioos:station:WAVCIS:CSI16:1,2009-10-12T19:00:00Z,29.4012,-89.0355,9.172,11111222 
WAVCIS,ioos:station:WAVCIS:CSI16:1,2009-10-12T20:00:00Z,29.4012,-89.0355,9.168,11111222 
WAVCIS,ioos:station:WAVCIS:CSI16:1,2009-10-12T21:00:00Z,29.4012,-89.0355,9.166,11111222 
WAVCIS,ioos:station:WAVCIS:CSI16:1,2009-10-12T22:00:00Z,29.4012,-89.0355,9.193,11111222 
WAVCIS,ioos:station:WAVCIS:CSI16:1,2009-10-12T23:00:00Z,29.4012,-89.0355,9.228,11111222 
WAVCIS,ioos:station:WAVCIS:CSI16:1,2009-10-13T00:00:00Z,29.4012,-89.0355,9.278,11111222 
WAVCIS,ioos:station:WAVCIS:CSI16:1,2009-10-13T01:00:00Z,29.4012,-89.0355,9.358,11111222 
WAVCIS,ioos:station:WAVCIS:CSI16:1,2009-10-13T02:00:00Z,29.4012,-89.0355,9.479,11111222 
WAVCIS,ioos:station:WAVCIS:CSI16:1,2009-10-13T03:00:00Z,29.4012,-89.0355,9.479,11111222 
WAVCIS,ioos:station:WAVCIS:CSI16:1,2009-10-13T04:00:00Z,29.4012,-89.0355,9.524,11111222 
WAVCIS,ioos:station:WAVCIS:CSI16:1,2009-10-13T05:00:00Z,29.4012,-89.0355,9.561,11111222 
WAVCIS,ioos:station:WAVCIS:CSI16:1,2009-10-13T06:00:00Z,29.4012,-89.0355,9.608,11111222 
WAVCIS,ioos:station:WAVCIS:CSI16:1,2009-10-13T07:00:00Z,29.4012,-89.0355,9.634,11111222 
WAVCIS,ioos:station:WAVCIS:CSI16:1,2009-10-13T08:00:00Z,29.4012,-89.0355,9.658,11111222 
WAVCIS,ioos:station:WAVCIS:CSI16:1,2009-10-13T09:00:00Z,29.4012,-89.0355,9.66,11111222 
WAVCIS,ioos:station:WAVCIS:CSI16:1,2009-10-13T10:00:00Z,29.4012,-89.0355,9.663,11111222 
WAVCIS,ioos:station:WAVCIS:CSI16:1,2009-10-13T11:00:00Z,29.4012,-89.0355,9.653,11111222 
WAVCIS,ioos:station:WAVCIS:CSI16:1,2009-10-13T12:00:00Z,29.4012,-89.0355,9.64,11111222 
WAVCIS,ioos:station:WAVCIS:CSI16:1,2009-10-13T13:00:00Z,29.4012,-89.0355,9.618,11111222 
WAVCIS,ioos:station:WAVCIS:CSI16:1,2009-10-13T14:00:00Z,29.4012,-89.0355,9.575,11111222 
WAVCIS,ioos:station:WAVCIS:CSI16:1,2009-10-13T15:00:00Z,29.4012,-89.0355,9.524,11111222 
WAVCIS,ioos:station:WAVCIS:CSI16:1,2009-10-13T16:00:00Z,29.4012,-89.0355,9.447,11111222 
WAVCIS,ioos:station:WAVCIS:CSI16:1,2009-10-13T17:00:00Z,29.4012,-89.0355,9.354,11111222 
WAVCIS,ioos:station:WAVCIS:CSI16:1,2009-10-13T18:00:00Z,29.4012,-89.0355,9.297,11111222 
WAVCIS,ioos:station:WAVCIS:CSI16:1,2009-10-13T19:00:00Z,29.4012,-89.0355,9.267,11111222 
WAVCIS,ioos:station:WAVCIS:CSI16:1,2009-10-13T20:00:00Z,29.4012,-89.0355,9.262,11111222 
WAVCIS,ioos:station:WAVCIS:CSI16:1,2009-10-13T21:00:00Z,29.4012,-89.0355,9.262,11111222 
WAVCIS,ioos:station:WAVCIS:CSI16:1,2009-10-13T22:00:00Z,29.4012,-89.0355,9.273,11111222 
WAVCIS,ioos:station:WAVCIS:CSI16:1,2009-10-13T23:00:00Z,29.4012,-89.0355,9.291,11111222 
WAVCIS,ioos:station:WAVCIS:CSI16:1,2009-10-14T00:00:00Z,29.4012,-89.0355,9.351,11111222 
WAVCIS,ioos:station:WAVCIS:CSI16:1,2009-10-14T01:00:00Z,29.4012,-89.0355,9.408,11111222 
WAVCIS,ioos:station:WAVCIS:CSI16:1,2009-10-14T02:00:00Z,29.4012,-89.0355,9.471,11111222 
WAVCIS,ioos:station:WAVCIS:CSI16:1,2009-10-14T03:00:00Z,29.4012,-89.0355,9.511,11111222 
WAVCIS,ioos:station:WAVCIS:CSI16:1,2009-10-14T04:00:00Z,29.4012,-89.0355,9.525,11111222 
WAVCIS,ioos:station:WAVCIS:CSI16:1,2009-10-14T05:00:00Z,29.4012,-89.0355,9.534,11111222 
WAVCIS,ioos:station:WAVCIS:CSI16:1,2009-10-14T06:00:00Z,29.4012,-89.0355,9.56,11111222 